P4MALC KJAX-KORF

Flight info

Callsign P4MALC
Flight time 2h 56m
Altitude 21000
Route CROSB2 WISPR JROSS Q135 ZORDO RREGG KOHLS1
Aircraft BT36/L-BDFGLORY/S

Departure

Time 2026-04-23 13:57
Airport Jacksonville International Airport (KJAX)

Arrival

Time 2026-04-23 16:53
Airport Norfolk International Airport (KORF)
Time Latitude Longitude Altitude Speed Heading
2026-04-23 13:35 30.49767 -81.68260 0 ft 0 kts 248°
2026-04-23 13:52 30.49773 -81.68284 29 ft 9 kts 317°
2026-04-23 13:52 30.49853 -81.68342 29 ft 17 kts 341°
2026-04-23 13:52 30.49878 -81.68441 29 ft 14 kts 344°
2026-04-23 13:52 30.49896 -81.68532 30 ft 17 kts 251°
2026-04-23 13:53 30.49848 -81.68691 30 ft 24 kts 250°
2026-04-23 13:53 30.49784 -81.68897 30 ft 29 kts 250°
2026-04-23 13:53 30.49714 -81.69124 30 ft 26 kts 250°
2026-04-23 13:53 30.49738 -81.69202 30 ft 9 kts 348°
2026-04-23 13:54 30.49756 -81.69205 31 ft 0 kts 358°
2026-04-23 13:56 30.49758 -81.69205 31 ft 2 kts 358°
2026-04-23 13:56 30.49825 -81.69201 32 ft 18 kts
2026-04-23 13:57 30.49915 -81.69043 32 ft 56 kts 70°
2026-04-23 13:57 30.50141 -81.68361 92 ft 118 kts 69°
2026-04-23 13:57 30.50463 -81.67368 373 ft 135 kts 68°
2026-04-23 13:57 30.50843 -81.66396 842 ft 138 kts 65°
2026-04-23 13:58 30.51249 -81.65370 1244 ft 145 kts 66°
2026-04-23 13:58 30.51972 -81.64530 1566 ft 158 kts 22°
2026-04-23 13:58 30.53086 -81.64247 1743 ft 170 kts 12°
2026-04-23 13:58 30.54236 -81.63888 1934 ft 173 kts 17°
2026-04-23 13:59 30.55399 -81.63440 2134 ft 180 kts 19°
2026-04-23 13:59 30.56591 -81.62963 2313 ft 182 kts 18°
2026-04-23 13:59 30.57793 -81.62487 2481 ft 182 kts 18°
2026-04-23 13:59 30.58979 -81.62011 2629 ft 181 kts 18°
2026-04-23 14:00 30.59771 -81.61690 2854 ft 175 kts 18°
2026-04-23 14:00 30.61315 -81.61072 3086 ft 178 kts 18°
2026-04-23 14:00 30.62485 -81.60599 3313 ft 178 kts 19°
2026-04-23 14:00 30.63650 -81.60128 3588 ft 177 kts 19°
2026-04-23 14:01 30.64816 -81.59665 3815 ft 177 kts 19°
2026-04-23 14:01 30.65975 -81.59192 3957 ft 177 kts 19°
2026-04-23 14:01 30.67141 -81.58734 4095 ft 177 kts 19°
2026-04-23 14:01 30.68303 -81.58267 4280 ft 177 kts 19°
2026-04-23 14:02 30.69470 -81.57798 4626 ft 178 kts 19°
2026-04-23 14:02 30.70630 -81.57331 4771 ft 178 kts 20°
2026-04-23 14:02 30.71797 -81.56860 4899 ft 178 kts 20°
2026-04-23 14:02 30.72966 -81.56387 5048 ft 178 kts 20°
2026-04-23 14:03 30.74140 -81.55917 5232 ft 179 kts 20°
2026-04-23 14:03 30.75321 -81.55443 5414 ft 180 kts 20°
2026-04-23 14:03 30.76508 -81.54963 5695 ft 181 kts 21°
2026-04-23 14:03 30.77701 -81.54486 5894 ft 182 kts 21°
2026-04-23 14:04 30.78903 -81.53996 6090 ft 182 kts 21°
2026-04-23 14:04 30.80105 -81.53512 6305 ft 183 kts 22°
2026-04-23 14:04 30.81313 -81.53025 6509 ft 184 kts 22°
2026-04-23 14:04 30.82510 -81.52544 6625 ft 185 kts 22°
2026-04-23 14:05 30.83727 -81.52053 6709 ft 185 kts 22°
2026-04-23 14:05 30.84947 -81.51560 6793 ft 186 kts 22°
2026-04-23 14:05 30.86159 -81.51041 6879 ft 185 kts 26°
2026-04-23 14:05 30.87350 -81.50449 6979 ft 186 kts 26°
2026-04-23 14:06 30.88553 -81.49874 7096 ft 187 kts 25°
2026-04-23 14:06 30.89742 -81.49299 7182 ft 187 kts 26°
2026-04-23 14:06 30.90962 -81.48708 7297 ft 188 kts 26°
2026-04-23 14:06 30.92158 -81.48129 7425 ft 189 kts 26°
2026-04-23 14:07 30.93350 -81.47554 7709 ft 181 kts 24°
2026-04-23 14:07 30.95746 -81.46987 8432 ft 172 kts 14°
2026-04-23 14:07 30.96921 -81.46717 8807 ft 172 kts 14°
2026-04-23 14:08 30.98095 -81.46454 9179 ft 171 kts 14°
2026-04-23 14:08 30.99264 -81.46192 9559 ft 170 kts 15°
2026-04-23 14:08 31.00428 -81.45927 9953 ft 171 kts 15°
2026-04-23 14:08 31.01610 -81.45660 10315 ft 173 kts 14°
2026-04-23 14:09 31.02783 -81.45400 10666 ft 173 kts 14°
2026-04-23 14:09 31.03967 -81.45133 11026 ft 173 kts 13°
2026-04-23 14:09 31.05150 -81.44866 11391 ft 174 kts 13°
2026-04-23 14:09 31.06340 -81.44598 11756 ft 175 kts 13°
2026-04-23 14:10 31.07539 -81.44327 12131 ft 175 kts 12°
2026-04-23 14:10 31.08736 -81.44059 12513 ft 176 kts 11°
2026-04-23 14:10 31.09944 -81.43786 12893 ft 177 kts 12°
2026-04-23 14:10 31.11155 -81.43512 13275 ft 177 kts 11°
2026-04-23 14:11 31.12370 -81.43238 13668 ft 178 kts 11°
2026-04-23 14:11 31.13585 -81.42964 14058 ft 178 kts 10°
2026-04-23 14:11 31.14795 -81.42691 14366 ft 180 kts 10°
2026-04-23 14:11 31.16034 -81.42411 14677 ft 182 kts
2026-04-23 14:12 31.17288 -81.42128 14986 ft 184 kts
2026-04-23 14:12 31.18549 -81.41843 15301 ft 185 kts
2026-04-23 14:12 31.19815 -81.41557 15619 ft 186 kts
2026-04-23 14:12 31.21084 -81.41272 15942 ft 185 kts
2026-04-23 14:13 31.22349 -81.40987 16278 ft 185 kts
2026-04-23 14:13 31.23607 -81.40701 16602 ft 184 kts
2026-04-23 14:13 31.24868 -81.40416 16933 ft 183 kts
2026-04-23 14:13 31.26122 -81.40132 17265 ft 183 kts
2026-04-23 14:14 31.27373 -81.39849 17602 ft 183 kts
2026-04-23 14:14 31.28616 -81.39569 17939 ft 182 kts
2026-04-23 14:14 31.29857 -81.39287 18286 ft 181 kts
2026-04-23 14:14 31.31095 -81.39007 18612 ft 181 kts
2026-04-23 14:15 31.32330 -81.38728 18908 ft 181 kts
2026-04-23 14:15 31.33566 -81.38447 19205 ft 180 kts
2026-04-23 14:15 31.34799 -81.38168 19510 ft 180 kts
2026-04-23 14:15 31.36017 -81.37892 19809 ft 180 kts
2026-04-23 14:16 31.37244 -81.37613 20119 ft 179 kts
2026-04-23 14:16 31.38462 -81.37337 20427 ft 177 kts
2026-04-23 14:16 31.39668 -81.37063 20744 ft 175 kts
2026-04-23 14:16 31.40863 -81.36792 20993 ft 177 kts
2026-04-23 14:17 31.42122 -81.36505 20997 ft 190 kts
2026-04-23 14:17 31.43446 -81.36203 21009 ft 197 kts
2026-04-23 14:17 31.44811 -81.35893 21004 ft 202 kts
2026-04-23 14:17 31.46187 -81.35581 21009 ft 205 kts
2026-04-23 14:18 31.47602 -81.35259 21007 ft 207 kts
2026-04-23 14:18 31.49008 -81.34936 20999 ft 204 kts 10°
2026-04-23 14:18 31.50390 -81.34623 20996 ft 201 kts
2026-04-23 14:18 31.51756 -81.34315 20992 ft 198 kts 10°
2026-04-23 14:19 31.53105 -81.34008 20987 ft 198 kts
2026-04-23 14:19 31.54452 -81.33702 20982 ft 196 kts 10°
2026-04-23 14:19 31.55787 -81.33398 20982 ft 195 kts
2026-04-23 14:19 31.57115 -81.33095 20983 ft 195 kts 10°
2026-04-23 14:20 31.58448 -81.32792 20979 ft 195 kts
2026-04-23 14:20 31.59764 -81.32492 20978 ft 194 kts 10°
2026-04-23 14:20 31.61088 -81.32191 20973 ft 193 kts
2026-04-23 14:20 31.62408 -81.31890 20972 ft 193 kts 10°
2026-04-23 14:21 31.63728 -81.31588 20975 ft 193 kts
2026-04-23 14:21 31.65054 -81.31287 20972 ft 194 kts 10°
2026-04-23 14:21 31.66374 -81.30985 20970 ft 193 kts
2026-04-23 14:21 31.67695 -81.30684 20969 ft 193 kts 10°
2026-04-23 14:22 31.69010 -81.30384 20972 ft 193 kts 10°
2026-04-23 14:22 31.70325 -81.30084 20973 ft 192 kts 10°
2026-04-23 14:22 31.71640 -81.29783 20970 ft 192 kts 10°
2026-04-23 14:22 31.72958 -81.29480 20971 ft 193 kts
2026-04-23 14:23 31.74260 -81.29184 20972 ft 193 kts 10°
2026-04-23 14:23 31.75580 -81.28883 20971 ft 193 kts 10°
2026-04-23 14:23 31.76896 -81.28583 20975 ft 193 kts 10°
2026-04-23 14:23 31.78215 -81.28282 20955 ft 193 kts 10°
2026-04-23 14:24 31.79534 -81.27978 20970 ft 191 kts 10°
2026-04-23 14:24 31.80821 -81.27684 21096 ft 186 kts 10°
2026-04-23 14:24 31.82082 -81.27396 21174 ft 184 kts 10°
2026-04-23 14:24 31.83353 -81.27104 21171 ft 187 kts 10°
2026-04-23 14:25 31.84637 -81.26810 21169 ft 189 kts 10°
2026-04-23 14:25 31.85929 -81.26515 21170 ft 190 kts 10°
2026-04-23 14:25 31.87229 -81.26216 21172 ft 191 kts 10°
2026-04-23 14:25 31.88518 -81.25921 21172 ft 191 kts 10°
2026-04-23 14:26 31.89821 -81.25622 21172 ft 191 kts 10°
2026-04-23 14:26 31.91132 -81.25322 21174 ft 191 kts 10°
2026-04-23 14:26 31.92438 -81.25022 21173 ft 191 kts 10°
2026-04-23 14:26 31.93747 -81.24722 21172 ft 191 kts 10°
2026-04-23 14:27 31.95055 -81.24421 21171 ft 191 kts 10°
2026-04-23 14:27 31.96351 -81.24124 21169 ft 192 kts 10°
2026-04-23 14:27 31.97660 -81.23823 21169 ft 192 kts 10°
2026-04-23 14:27 31.98969 -81.23522 21170 ft 192 kts 10°
2026-04-23 14:28 32.00281 -81.23221 21169 ft 192 kts 10°
2026-04-23 14:28 32.01590 -81.22920 21170 ft 192 kts 10°
2026-04-23 14:28 32.02900 -81.22603 21169 ft 192 kts 14°
2026-04-23 14:28 32.04076 -81.21863 21163 ft 194 kts 36°
2026-04-23 14:29 32.05153 -81.20905 21171 ft 194 kts 35°
2026-04-23 14:29 32.06247 -81.19954 21206 ft 195 kts 35°
2026-04-23 14:29 32.07324 -81.19014 21209 ft 195 kts 35°
2026-04-23 14:29 32.08414 -81.18057 21207 ft 194 kts 35°
2026-04-23 14:30 32.09501 -81.17109 21211 ft 194 kts 35°
2026-04-23 14:30 32.10588 -81.16158 21210 ft 194 kts 35°
2026-04-23 14:30 32.11675 -81.15206 21208 ft 195 kts 35°
2026-04-23 14:30 32.12398 -81.14574 21211 ft 194 kts 35°
2026-04-23 14:31 32.13853 -81.13299 21210 ft 194 kts 35°
2026-04-23 14:31 32.14925 -81.12358 21210 ft 195 kts 35°
2026-04-23 14:31 32.16015 -81.11404 21208 ft 194 kts 35°
2026-04-23 14:31 32.17101 -81.10452 21211 ft 194 kts 35°
2026-04-23 14:32 32.18184 -81.09502 21207 ft 194 kts 35°
2026-04-23 14:32 32.18901 -81.08874 21207 ft 194 kts 35°
2026-04-23 14:32 32.19983 -81.07924 21204 ft 193 kts 35°
2026-04-23 14:32 32.21062 -81.06976 21206 ft 193 kts 35°
2026-04-23 14:33 32.22142 -81.06029 21204 ft 193 kts 35°
2026-04-23 14:33 32.23221 -81.05081 21203 ft 193 kts 35°
2026-04-23 14:33 32.24304 -81.04130 21203 ft 193 kts 35°
2026-04-23 14:33 32.25732 -81.02874 21204 ft 193 kts 35°
2026-04-23 14:34 32.26463 -81.02232 21203 ft 193 kts 35°
2026-04-23 14:34 32.27543 -81.01283 21204 ft 193 kts 35°
2026-04-23 14:34 32.28609 -81.00345 21204 ft 193 kts 35°
2026-04-23 14:34 32.29691 -80.99393 21200 ft 193 kts 35°
2026-04-23 14:35 32.30768 -80.98446 21202 ft 193 kts 35°
2026-04-23 14:35 32.31847 -80.97495 21204 ft 193 kts 35°
2026-04-23 14:35 32.32929 -80.96543 21204 ft 193 kts 35°
2026-04-23 14:35 32.34011 -80.95589 21206 ft 194 kts 35°
2026-04-23 14:36 32.35091 -80.94638 21206 ft 194 kts 35°
2026-04-23 14:36 32.36169 -80.93688 21205 ft 194 kts 35°
2026-04-23 14:36 32.37250 -80.92734 21206 ft 194 kts 36°
2026-04-23 14:36 32.38333 -80.91778 21210 ft 194 kts 35°
2026-04-23 14:37 32.39415 -80.90824 21209 ft 194 kts 35°
2026-04-23 14:37 32.40497 -80.89870 21207 ft 194 kts 35°
2026-04-23 14:37 32.41569 -80.88924 21207 ft 194 kts 35°
2026-04-23 14:37 32.42651 -80.87968 21207 ft 194 kts 35°
2026-04-23 14:38 32.43735 -80.87009 21207 ft 194 kts 35°
2026-04-23 14:38 32.44818 -80.86054 21206 ft 194 kts 35°
2026-04-23 14:38 32.45902 -80.85095 21207 ft 194 kts 35°
2026-04-23 14:38 32.46984 -80.84139 21205 ft 194 kts 35°
2026-04-23 14:39 32.48068 -80.83180 21205 ft 194 kts 35°
2026-04-23 14:39 32.49150 -80.82223 21204 ft 194 kts 36°
2026-04-23 14:39 32.50231 -80.81266 21205 ft 194 kts 35°
2026-04-23 14:39 32.51313 -80.80308 21200 ft 194 kts 35°
2026-04-23 14:40 32.52395 -80.79351 21202 ft 194 kts 35°
2026-04-23 14:40 32.53468 -80.78401 21203 ft 196 kts 35°
2026-04-23 14:40 32.54578 -80.77419 21204 ft 201 kts 36°
2026-04-23 14:40 32.55697 -80.76424 21209 ft 202 kts 35°
2026-04-23 14:41 32.56826 -80.75423 21207 ft 201 kts 36°
2026-04-23 14:41 32.57940 -80.74432 21203 ft 200 kts 35°
2026-04-23 14:41 32.59059 -80.73443 21205 ft 201 kts 35°
2026-04-23 14:41 32.60157 -80.72466 21204 ft 195 kts 35°
2026-04-23 14:42 32.61242 -80.71503 21201 ft 194 kts 35°
2026-04-23 14:42 32.62324 -80.70546 21199 ft 194 kts 36°
2026-04-23 14:42 32.63405 -80.69585 21198 ft 194 kts 35°
2026-04-23 14:42 32.64485 -80.68625 21198 ft 194 kts 36°
2026-04-23 14:43 32.65562 -80.67667 21198 ft 193 kts 35°
2026-04-23 14:43 32.66627 -80.66720 21198 ft 193 kts 35°
2026-04-23 14:43 32.67707 -80.65761 21197 ft 193 kts 35°
2026-04-23 14:43 32.68785 -80.64800 21200 ft 193 kts 35°
2026-04-23 14:44 32.69864 -80.63840 21198 ft 193 kts 35°
2026-04-23 14:44 32.70939 -80.62880 21200 ft 193 kts 37°
2026-04-23 14:44 32.71869 -80.61722 21197 ft 194 kts 48°
2026-04-23 14:44 32.72756 -80.60505 21200 ft 194 kts 47°
2026-04-23 14:45 32.73650 -80.59302 21198 ft 194 kts 47°
2026-04-23 14:45 32.74543 -80.58097 21199 ft 194 kts 46°
2026-04-23 14:45 32.75437 -80.56889 21201 ft 194 kts 47°
2026-04-23 14:45 32.76328 -80.55684 21201 ft 194 kts 47°
2026-04-23 14:46 32.77207 -80.54495 21200 ft 194 kts 47°
2026-04-23 14:46 32.78100 -80.53286 21200 ft 194 kts 47°
2026-04-23 14:46 32.78994 -80.52076 21201 ft 194 kts 47°
2026-04-23 14:46 32.79888 -80.50867 21200 ft 194 kts 47°
2026-04-23 14:47 32.80779 -80.49660 21202 ft 194 kts 47°
2026-04-23 14:47 32.81674 -80.48447 21201 ft 194 kts 47°
2026-04-23 14:47 32.82553 -80.47256 21201 ft 194 kts 47°
2026-04-23 14:47 32.83444 -80.46049 21201 ft 194 kts 47°
2026-04-23 14:48 32.84338 -80.44836 21199 ft 194 kts 47°
2026-04-23 14:48 32.85231 -80.43626 21200 ft 194 kts 47°
2026-04-23 14:48 32.86121 -80.42418 21203 ft 194 kts 47°
2026-04-23 14:48 32.87013 -80.41207 21198 ft 194 kts 47°
2026-04-23 14:49 32.87890 -80.40015 21202 ft 194 kts 47°
2026-04-23 14:49 32.88782 -80.38803 21186 ft 194 kts 47°
2026-04-23 14:49 32.89670 -80.37597 21182 ft 194 kts 47°
2026-04-23 14:49 32.90561 -80.36387 21185 ft 194 kts 47°
2026-04-23 14:50 32.91451 -80.35175 21183 ft 194 kts 47°
2026-04-23 14:50 32.92340 -80.33967 21186 ft 194 kts 47°
2026-04-23 14:50 32.93229 -80.32757 21181 ft 194 kts 47°
2026-04-23 14:50 32.94121 -80.31545 21181 ft 194 kts 47°
2026-04-23 14:51 32.95008 -80.30337 21180 ft 194 kts 47°
2026-04-23 14:51 32.95896 -80.29126 21182 ft 194 kts 47°
2026-04-23 14:51 32.96786 -80.27913 21180 ft 194 kts 47°
2026-04-23 14:51 32.97664 -80.26717 21183 ft 194 kts 47°
2026-04-23 14:52 32.98555 -80.25501 21181 ft 196 kts 47°
2026-04-23 14:52 32.99450 -80.24282 21179 ft 195 kts 47°
2026-04-23 14:52 33.00345 -80.23063 21182 ft 195 kts 47°
2026-04-23 14:52 33.01236 -80.21844 21183 ft 195 kts 47°
2026-04-23 14:53 33.02130 -80.20623 21184 ft 195 kts 47°
2026-04-23 14:53 33.03024 -80.19402 21184 ft 195 kts 47°
2026-04-23 14:53 33.03921 -80.18179 21184 ft 195 kts 47°
2026-04-23 14:53 33.04811 -80.16963 21184 ft 195 kts 47°
2026-04-23 14:54 33.05703 -80.15742 21185 ft 195 kts 47°
2026-04-23 14:54 33.06594 -80.14526 21183 ft 195 kts 47°
2026-04-23 14:54 33.07482 -80.13308 21185 ft 195 kts 47°
2026-04-23 14:54 33.08371 -80.12094 21192 ft 194 kts 47°
2026-04-23 14:55 33.09247 -80.10897 21191 ft 194 kts 47°
2026-04-23 14:55 33.10134 -80.09683 21191 ft 194 kts 47°
2026-04-23 14:55 33.11021 -80.08468 21191 ft 194 kts 47°
2026-04-23 14:55 33.11905 -80.07250 21192 ft 194 kts 47°
2026-04-23 14:56 33.12793 -80.06035 21192 ft 195 kts 47°
2026-04-23 14:56 33.13682 -80.04816 21197 ft 195 kts 47°
2026-04-23 14:56 33.14575 -80.03593 21192 ft 195 kts 47°
2026-04-23 14:56 33.15464 -80.02375 21198 ft 195 kts 47°
2026-04-23 14:57 33.16358 -80.01146 21194 ft 195 kts 47°
2026-04-23 14:57 33.17235 -79.99941 21195 ft 194 kts 47°
2026-04-23 14:57 33.18120 -79.98725 21199 ft 194 kts 47°
2026-04-23 14:57 33.19007 -79.97509 21194 ft 194 kts 48°
2026-04-23 14:58 33.19892 -79.96291 21196 ft 194 kts 47°
2026-04-23 14:58 33.20776 -79.95078 21193 ft 193 kts 47°
2026-04-23 14:58 33.21657 -79.93866 21193 ft 193 kts 47°
2026-04-23 14:58 33.22539 -79.92652 21193 ft 193 kts 47°
2026-04-23 14:59 33.23421 -79.91439 21190 ft 193 kts 47°
2026-04-23 14:59 33.24288 -79.90245 21190 ft 193 kts 47°
2026-04-23 14:59 33.25167 -79.89033 21193 ft 193 kts 47°
2026-04-23 14:59 33.26049 -79.87820 21189 ft 193 kts 47°
2026-04-23 15:00 33.26928 -79.86606 21191 ft 193 kts 47°
2026-04-23 15:00 33.27811 -79.85390 21191 ft 193 kts 47°
2026-04-23 15:00 33.28693 -79.84176 21189 ft 193 kts 47°
2026-04-23 15:00 33.29561 -79.82978 21188 ft 193 kts 47°
2026-04-23 15:01 33.30438 -79.81766 21189 ft 193 kts 47°
2026-04-23 15:01 33.31317 -79.80555 21185 ft 193 kts 47°
2026-04-23 15:01 33.32195 -79.79341 21184 ft 193 kts 47°
2026-04-23 15:01 33.33077 -79.78124 21182 ft 193 kts 47°
2026-04-23 15:02 33.33659 -79.77319 21184 ft 193 kts 47°
2026-04-23 15:02 33.34834 -79.75695 21185 ft 193 kts 47°
2026-04-23 15:02 33.35714 -79.74479 21182 ft 193 kts 47°
2026-04-23 15:02 33.36591 -79.73265 21183 ft 193 kts 47°
2026-04-23 15:03 33.37469 -79.72051 21180 ft 193 kts 47°
2026-04-23 15:03 33.38347 -79.70836 21179 ft 193 kts 47°
2026-04-23 15:03 33.39215 -79.69632 21180 ft 193 kts 47°
2026-04-23 15:03 33.40106 -79.68398 21184 ft 193 kts 47°
2026-04-23 15:04 33.40977 -79.67195 21185 ft 194 kts 47°
2026-04-23 15:04 33.41860 -79.65970 21177 ft 194 kts 47°
2026-04-23 15:04 33.42740 -79.64749 21178 ft 194 kts 47°
2026-04-23 15:04 33.43623 -79.63525 21183 ft 195 kts 47°
2026-04-23 15:05 33.44508 -79.62297 21181 ft 195 kts 47°
2026-04-23 15:05 33.45394 -79.61067 21180 ft 195 kts 47°
2026-04-23 15:05 33.46281 -79.59839 21181 ft 195 kts 47°
2026-04-23 15:05 33.47152 -79.58626 21180 ft 194 kts 47°
2026-04-23 15:06 33.48035 -79.57399 21182 ft 194 kts 47°
2026-04-23 15:06 33.48917 -79.56175 21179 ft 194 kts 47°
2026-04-23 15:06 33.49796 -79.54954 21179 ft 193 kts 47°
2026-04-23 15:06 33.50676 -79.53728 21182 ft 194 kts 47°
2026-04-23 15:07 33.51557 -79.52502 21178 ft 194 kts 47°
2026-04-23 15:07 33.52442 -79.51271 21178 ft 195 kts 47°
2026-04-23 15:07 33.53323 -79.50046 21180 ft 194 kts 47°
2026-04-23 15:07 33.54205 -79.48820 21179 ft 194 kts 47°
2026-04-23 15:08 33.55075 -79.47607 21177 ft 193 kts 47°
2026-04-23 15:08 33.55963 -79.46368 21179 ft 194 kts 47°
2026-04-23 15:08 33.56843 -79.45141 21177 ft 194 kts 47°
2026-04-23 15:09 33.58590 -79.42702 21177 ft 193 kts 47°
2026-04-23 15:09 33.59469 -79.41480 21183 ft 194 kts 47°
2026-04-23 15:09 33.60349 -79.40252 21177 ft 195 kts 47°
2026-04-23 15:09 33.61230 -79.39021 21176 ft 194 kts 47°
2026-04-23 15:10 33.61815 -79.38202 21176 ft 194 kts 47°
2026-04-23 15:10 33.62994 -79.36559 21175 ft 195 kts 47°
2026-04-23 15:10 33.63877 -79.35323 21174 ft 194 kts 47°
2026-04-23 15:10 33.64745 -79.34108 21174 ft 194 kts 47°
2026-04-23 15:11 33.65625 -79.32878 21173 ft 194 kts 47°
2026-04-23 15:11 33.66504 -79.31646 21175 ft 194 kts 47°
2026-04-23 15:11 33.67383 -79.30418 21176 ft 194 kts 47°
2026-04-23 15:11 33.68264 -79.29186 21175 ft 194 kts 47°
2026-04-23 15:12 33.69143 -79.27957 21176 ft 195 kts 47°
2026-04-23 15:12 33.70025 -79.26723 21172 ft 194 kts 47°
2026-04-23 15:12 33.70905 -79.25491 21172 ft 194 kts 47°
2026-04-23 15:12 33.71781 -79.24264 21172 ft 193 kts 47°
2026-04-23 15:13 33.72657 -79.23037 21176 ft 193 kts 47°
2026-04-23 15:13 33.73531 -79.21811 21178 ft 193 kts 47°
2026-04-23 15:13 33.74399 -79.20598 21176 ft 193 kts 47°
2026-04-23 15:13 33.75272 -79.19372 21177 ft 194 kts 47°
2026-04-23 15:14 33.76154 -79.18136 21177 ft 195 kts 47°
2026-04-23 15:14 33.77036 -79.16895 21178 ft 195 kts 47°
2026-04-23 15:14 33.77920 -79.15659 21178 ft 195 kts 47°
2026-04-23 15:14 33.78804 -79.14421 21178 ft 195 kts 47°
2026-04-23 15:15 33.79682 -79.13187 21176 ft 194 kts 47°
2026-04-23 15:15 33.80559 -79.11954 21178 ft 194 kts 47°
2026-04-23 15:15 33.81435 -79.10721 21180 ft 194 kts 46°
2026-04-23 15:15 33.82314 -79.09487 21177 ft 194 kts 47°
2026-04-23 15:16 33.83191 -79.08255 21181 ft 194 kts 47°
2026-04-23 15:16 33.84059 -79.07036 21179 ft 194 kts 47°
2026-04-23 15:16 33.84936 -79.05799 21178 ft 195 kts 47°
2026-04-23 15:16 33.85818 -79.04555 21177 ft 194 kts 47°
2026-04-23 15:17 33.86696 -79.03323 21177 ft 194 kts 47°
2026-04-23 15:17 33.87572 -79.02089 21179 ft 193 kts 47°
2026-04-23 15:17 33.88446 -79.00857 21177 ft 193 kts 47°
2026-04-23 15:17 33.89322 -78.99622 21181 ft 194 kts 47°
2026-04-23 15:18 33.90185 -78.98402 21180 ft 194 kts 46°
2026-04-23 15:18 33.91060 -78.97172 21173 ft 193 kts 47°
2026-04-23 15:18 33.91933 -78.95944 21174 ft 193 kts 47°
2026-04-23 15:18 33.92804 -78.94711 21175 ft 193 kts 47°
2026-04-23 15:19 33.93677 -78.93472 21178 ft 194 kts 47°
2026-04-23 15:19 33.94552 -78.92239 21173 ft 193 kts 46°
2026-04-23 15:19 33.95425 -78.91008 21162 ft 193 kts 47°
2026-04-23 15:19 33.96295 -78.89778 21160 ft 193 kts 47°
2026-04-23 15:20 33.96869 -78.88966 21161 ft 192 kts 46°
2026-04-23 15:20 33.98026 -78.87330 21156 ft 192 kts 47°
2026-04-23 15:20 33.98895 -78.86102 21157 ft 192 kts 47°
2026-04-23 15:20 33.99760 -78.84876 21159 ft 192 kts 46°
2026-04-23 15:21 34.00625 -78.83651 21156 ft 192 kts 47°
2026-04-23 15:21 34.01494 -78.82421 21156 ft 192 kts 47°
2026-04-23 15:21 34.02066 -78.81609 21154 ft 192 kts 47°
2026-04-23 15:21 34.03224 -78.79968 21155 ft 192 kts 47°
2026-04-23 15:22 34.04076 -78.78760 21154 ft 192 kts 46°
2026-04-23 15:22 34.04665 -78.77926 21164 ft 192 kts 47°
2026-04-23 15:22 34.05808 -78.76304 21170 ft 192 kts 47°
2026-04-23 15:22 34.06671 -78.75079 21167 ft 192 kts 47°
2026-04-23 15:23 34.07244 -78.74267 21161 ft 192 kts 47°
2026-04-23 15:23 34.08107 -78.73042 21162 ft 192 kts 47°
2026-04-23 15:23 34.08973 -78.71809 21162 ft 192 kts 47°
2026-04-23 15:23 34.09835 -78.70585 21165 ft 191 kts 46°
2026-04-23 15:24 34.10697 -78.69359 21164 ft 192 kts 47°
2026-04-23 15:24 34.11559 -78.68132 21163 ft 192 kts 46°
2026-04-23 15:24 34.12422 -78.66906 21164 ft 192 kts 47°
2026-04-23 15:24 34.13284 -78.65680 21165 ft 192 kts 47°
2026-04-23 15:25 34.14145 -78.64453 21166 ft 192 kts 47°
2026-04-23 15:25 34.14997 -78.63239 21172 ft 192 kts 47°
2026-04-23 15:25 34.15858 -78.62012 21166 ft 191 kts 46°
2026-04-23 15:25 34.16722 -78.60784 21164 ft 191 kts 47°
2026-04-23 15:26 34.17582 -78.59556 21164 ft 192 kts 47°
2026-04-23 15:26 34.18443 -78.58329 21168 ft 191 kts 47°
2026-04-23 15:26 34.19303 -78.57101 21171 ft 191 kts 47°
2026-04-23 15:26 34.20166 -78.55871 21171 ft 191 kts 47°
2026-04-23 15:27 34.21027 -78.54640 21169 ft 191 kts 47°
2026-04-23 15:27 34.21885 -78.53415 21165 ft 191 kts 47°
2026-04-23 15:27 34.22737 -78.52198 21163 ft 191 kts 47°
2026-04-23 15:27 34.23597 -78.50970 21162 ft 191 kts 47°
2026-04-23 15:28 34.24456 -78.49742 21166 ft 191 kts 47°
2026-04-23 15:28 34.25343 -78.48545 21159 ft 190 kts 40°
2026-04-23 15:28 34.26341 -78.47498 21163 ft 190 kts 38°
2026-04-23 15:28 34.27334 -78.46444 21163 ft 190 kts 39°
2026-04-23 15:29 34.28326 -78.45386 21162 ft 190 kts 39°
2026-04-23 15:29 34.29318 -78.44327 21162 ft 190 kts 39°
2026-04-23 15:29 34.30310 -78.43269 21157 ft 190 kts 39°
2026-04-23 15:29 34.31307 -78.42206 21157 ft 190 kts 39°
2026-04-23 15:30 34.32296 -78.41150 21155 ft 190 kts 39°
2026-04-23 15:30 34.33291 -78.40088 21153 ft 190 kts 39°
2026-04-23 15:30 34.34283 -78.39028 21150 ft 190 kts 39°
2026-04-23 15:30 34.35277 -78.37966 21155 ft 190 kts 39°
2026-04-23 15:31 34.36269 -78.36906 21152 ft 190 kts 39°
2026-04-23 15:31 34.37261 -78.35845 21148 ft 190 kts 39°
2026-04-23 15:31 34.38242 -78.34796 21152 ft 190 kts 39°
2026-04-23 15:31 34.39235 -78.33734 21147 ft 190 kts 39°
2026-04-23 15:32 34.40227 -78.32672 21143 ft 190 kts 39°
2026-04-23 15:32 34.41218 -78.31610 21147 ft 190 kts 39°
2026-04-23 15:32 34.42212 -78.30547 21153 ft 190 kts 39°
2026-04-23 15:32 34.43208 -78.29480 21145 ft 190 kts 38°
2026-04-23 15:33 34.44199 -78.28417 21147 ft 190 kts 38°
2026-04-23 15:33 34.45181 -78.27365 21142 ft 191 kts 38°
2026-04-23 15:33 34.46181 -78.26294 21143 ft 192 kts 38°
2026-04-23 15:33 34.47181 -78.25221 21139 ft 192 kts 38°
2026-04-23 15:34 34.48180 -78.24148 21141 ft 192 kts 38°
2026-04-23 15:34 34.49184 -78.23072 21133 ft 192 kts 38°
2026-04-23 15:34 34.50182 -78.21999 21143 ft 192 kts 38°
2026-04-23 15:34 34.51186 -78.20928 21135 ft 192 kts 39°
2026-04-23 15:35 34.52180 -78.19851 21137 ft 191 kts 38°
2026-04-23 15:35 34.53177 -78.18777 21141 ft 192 kts 38°
2026-04-23 15:35 34.54177 -78.17708 21133 ft 192 kts 38°
2026-04-23 15:35 34.55175 -78.16633 21133 ft 191 kts 38°
2026-04-23 15:36 34.56171 -78.15561 21134 ft 191 kts 38°
2026-04-23 15:36 34.57152 -78.14506 21138 ft 191 kts 38°
2026-04-23 15:36 34.58148 -78.13433 21141 ft 192 kts 38°
2026-04-23 15:36 34.59149 -78.12355 21138 ft 192 kts 38°
2026-04-23 15:37 34.60150 -78.11280 21141 ft 192 kts 38°
2026-04-23 15:37 34.61146 -78.10204 21142 ft 192 kts 38°
2026-04-23 15:37 34.62144 -78.09127 21138 ft 191 kts 38°
2026-04-23 15:37 34.63141 -78.08051 21148 ft 191 kts 38°
2026-04-23 15:38 34.64135 -78.06980 21139 ft 191 kts 38°
2026-04-23 15:38 34.65131 -78.05906 21143 ft 191 kts 38°
2026-04-23 15:38 34.66123 -78.04835 21140 ft 191 kts 38°
2026-04-23 15:38 34.67115 -78.03764 21141 ft 191 kts 38°
2026-04-23 15:39 34.68095 -78.02706 21140 ft 191 kts 38°
2026-04-23 15:39 34.69085 -78.01634 21141 ft 191 kts 38°
2026-04-23 15:39 34.70076 -78.00564 21138 ft 191 kts 38°
2026-04-23 15:39 34.71080 -77.99479 21144 ft 190 kts 38°
2026-04-23 15:40 34.72059 -77.98420 21143 ft 190 kts 38°
2026-04-23 15:40 34.73048 -77.97350 21146 ft 190 kts 38°
2026-04-23 15:40 34.74037 -77.96280 21142 ft 190 kts 38°
2026-04-23 15:40 34.75027 -77.95207 21140 ft 190 kts 38°
2026-04-23 15:41 34.76017 -77.94135 21144 ft 190 kts 38°
2026-04-23 15:41 34.76996 -77.93075 21142 ft 190 kts 38°
2026-04-23 15:41 34.77983 -77.92004 21146 ft 190 kts 38°
2026-04-23 15:41 34.78971 -77.90933 21140 ft 190 kts 38°
2026-04-23 15:42 34.79960 -77.89860 21144 ft 190 kts 38°
2026-04-23 15:42 34.80949 -77.88788 21138 ft 190 kts 38°
2026-04-23 15:42 34.81934 -77.87720 21142 ft 190 kts 37°
2026-04-23 15:42 34.82922 -77.86647 21141 ft 190 kts 38°
2026-04-23 15:43 34.83908 -77.85576 21139 ft 190 kts 38°
2026-04-23 15:43 34.84893 -77.84506 21138 ft 190 kts 38°
2026-04-23 15:43 34.85879 -77.83434 21141 ft 190 kts 38°
2026-04-23 15:43 34.86867 -77.82370 21146 ft 189 kts 35°
2026-04-23 15:44 34.87871 -77.81361 21148 ft 189 kts 37°
2026-04-23 15:44 34.88868 -77.80310 21147 ft 189 kts 37°
2026-04-23 15:44 34.89869 -77.79266 21144 ft 189 kts 36°
2026-04-23 15:44 34.90873 -77.78228 21146 ft 189 kts 36°
2026-04-23 15:45 34.91877 -77.77190 21148 ft 189 kts 36°
2026-04-23 15:45 34.92882 -77.76149 21149 ft 189 kts 36°
2026-04-23 15:45 34.93885 -77.75111 21148 ft 189 kts 36°
2026-04-23 15:45 34.94888 -77.74073 21148 ft 189 kts 36°
2026-04-23 15:46 34.95891 -77.73034 21148 ft 189 kts 36°
2026-04-23 15:46 34.96894 -77.71995 21148 ft 189 kts 36°
2026-04-23 15:46 34.97899 -77.70954 21146 ft 189 kts 36°
2026-04-23 15:46 34.98901 -77.69914 21148 ft 189 kts 36°
2026-04-23 15:47 34.99906 -77.68872 21144 ft 189 kts 36°
2026-04-23 15:47 35.00910 -77.67830 21144 ft 189 kts 36°
2026-04-23 15:47 35.01912 -77.66791 21144 ft 189 kts 36°
2026-04-23 15:47 35.02913 -77.65752 21140 ft 189 kts 36°
2026-04-23 15:48 35.03913 -77.64712 21141 ft 189 kts 36°
2026-04-23 15:48 35.04900 -77.63688 21141 ft 189 kts 36°
2026-04-23 15:48 35.05899 -77.62649 21138 ft 189 kts 36°
2026-04-23 15:48 35.06900 -77.61608 21137 ft 189 kts 36°
2026-04-23 15:49 35.07901 -77.60567 21138 ft 189 kts 36°
2026-04-23 15:49 35.08900 -77.59528 21133 ft 189 kts 36°
2026-04-23 15:49 35.09901 -77.58487 21135 ft 189 kts 36°
2026-04-23 15:49 35.10888 -77.57459 21136 ft 189 kts 36°
2026-04-23 15:50 35.11888 -77.56418 21136 ft 189 kts 36°
2026-04-23 15:50 35.12886 -77.55379 21137 ft 188 kts 36°
2026-04-23 15:50 35.13899 -77.54367 21136 ft 187 kts 29°
2026-04-23 15:50 35.15067 -77.53714 21134 ft 184 kts 19°
2026-04-23 15:51 35.16246 -77.53083 21136 ft 185 kts 20°
2026-04-23 15:51 35.17420 -77.52449 21137 ft 184 kts 20°
2026-04-23 15:51 35.18595 -77.51819 21137 ft 185 kts 20°
2026-04-23 15:51 35.19774 -77.51188 21139 ft 185 kts 20°
2026-04-23 15:52 35.20950 -77.50558 21138 ft 184 kts 20°
2026-04-23 15:52 35.22130 -77.49925 21137 ft 185 kts 20°
2026-04-23 15:52 35.23310 -77.49293 21137 ft 185 kts 20°
2026-04-23 15:52 35.24485 -77.48662 21138 ft 185 kts 20°
2026-04-23 15:53 35.25644 -77.48040 21137 ft 184 kts 20°
2026-04-23 15:53 35.26824 -77.47406 21143 ft 185 kts 20°
2026-04-23 15:53 35.28006 -77.46772 21135 ft 185 kts 20°
2026-04-23 15:53 35.29185 -77.46139 21137 ft 185 kts 20°
2026-04-23 15:54 35.30363 -77.45506 21140 ft 185 kts 20°
2026-04-23 15:54 35.31544 -77.44871 21137 ft 185 kts 20°
2026-04-23 15:54 35.32724 -77.44237 21138 ft 185 kts 20°
2026-04-23 15:54 35.33903 -77.43603 21134 ft 185 kts 20°
2026-04-23 15:55 35.35081 -77.42969 21132 ft 185 kts 20°
2026-04-23 15:55 35.36257 -77.42337 21133 ft 184 kts 20°
2026-04-23 15:55 35.37434 -77.41705 21131 ft 185 kts 20°
2026-04-23 15:55 35.38611 -77.41069 21134 ft 185 kts 20°
2026-04-23 15:56 35.39788 -77.40435 21135 ft 185 kts 20°
2026-04-23 15:56 35.40966 -77.39800 21126 ft 185 kts 20°
2026-04-23 15:56 35.42143 -77.39166 21129 ft 185 kts 20°
2026-04-23 15:56 35.43310 -77.38536 21107 ft 185 kts 20°
2026-04-23 15:57 35.44490 -77.37900 21108 ft 185 kts 20°
2026-04-23 15:57 35.45670 -77.37264 21108 ft 186 kts 20°
2026-04-23 15:57 35.46852 -77.36628 21105 ft 185 kts 20°
2026-04-23 15:57 35.48030 -77.35989 21102 ft 185 kts 20°
2026-04-23 15:58 35.49212 -77.35350 21106 ft 185 kts 20°
2026-04-23 15:58 35.50392 -77.34715 21106 ft 185 kts 20°
2026-04-23 15:58 35.51573 -77.34076 21105 ft 186 kts 20°
2026-04-23 15:58 35.52753 -77.33437 21105 ft 185 kts 20°
2026-04-23 15:59 35.53929 -77.32803 21103 ft 184 kts 20°
2026-04-23 15:59 35.55106 -77.32166 21104 ft 185 kts 20°
2026-04-23 15:59 35.56281 -77.31529 21102 ft 185 kts 20°
2026-04-23 15:59 35.57457 -77.30893 21102 ft 185 kts 20°
2026-04-23 16:00 35.58618 -77.30265 21106 ft 185 kts 20°
2026-04-23 16:00 35.59801 -77.29625 21105 ft 185 kts 20°
2026-04-23 16:00 35.60975 -77.28990 21105 ft 185 kts 20°
2026-04-23 16:00 35.62154 -77.28351 21105 ft 185 kts 20°
2026-04-23 16:01 35.63331 -77.27711 21106 ft 185 kts 20°
2026-04-23 16:01 35.64509 -77.27073 21107 ft 185 kts 20°
2026-04-23 16:01 35.65684 -77.26436 21103 ft 185 kts 20°
2026-04-23 16:01 35.66860 -77.25796 21105 ft 185 kts 20°
2026-04-23 16:02 35.68037 -77.25158 21103 ft 185 kts 20°
2026-04-23 16:02 35.69215 -77.24518 21103 ft 185 kts 20°
2026-04-23 16:02 35.70388 -77.23882 21101 ft 185 kts 20°
2026-04-23 16:02 35.71567 -77.23240 21098 ft 185 kts 20°
2026-04-23 16:03 35.72744 -77.22600 21111 ft 185 kts 20°
2026-04-23 16:03 35.73921 -77.21962 21113 ft 185 kts 20°
2026-04-23 16:03 35.75102 -77.21319 21113 ft 185 kts 20°
2026-04-23 16:03 35.76268 -77.20685 21112 ft 185 kts 20°
2026-04-23 16:04 35.77445 -77.20044 21117 ft 185 kts 20°
2026-04-23 16:04 35.78623 -77.19403 21111 ft 185 kts 19°
2026-04-23 16:04 35.79802 -77.18760 21109 ft 185 kts 20°
2026-04-23 16:04 35.80981 -77.18119 21111 ft 185 kts 20°
2026-04-23 16:05 35.81760 -77.17695 21110 ft 185 kts 20°
2026-04-23 16:05 35.83322 -77.16842 21116 ft 186 kts 20°
2026-04-23 16:05 35.84512 -77.16194 21114 ft 186 kts 20°
2026-04-23 16:05 35.85694 -77.15550 21114 ft 186 kts 20°
2026-04-23 16:06 35.86877 -77.14902 21113 ft 186 kts 20°
2026-04-23 16:06 35.88062 -77.14258 21114 ft 186 kts 20°
2026-04-23 16:06 35.89246 -77.13610 21112 ft 186 kts 20°
2026-04-23 16:06 35.90430 -77.12964 21115 ft 186 kts 20°
2026-04-23 16:07 35.91600 -77.12325 21111 ft 186 kts 19°
2026-04-23 16:07 35.92788 -77.11675 21109 ft 187 kts 20°
2026-04-23 16:07 35.93977 -77.11024 21114 ft 187 kts 20°
2026-04-23 16:07 35.95164 -77.10376 21098 ft 187 kts 19°
2026-04-23 16:08 35.96352 -77.09727 21099 ft 187 kts 19°
2026-04-23 16:08 35.97543 -77.09076 21109 ft 187 kts 19°
2026-04-23 16:08 35.98736 -77.08421 21104 ft 188 kts 20°
2026-04-23 16:08 35.99938 -77.07762 21099 ft 189 kts 19°
2026-04-23 16:09 36.00735 -77.07326 21100 ft 188 kts 19°
2026-04-23 16:09 36.02335 -77.06450 21099 ft 188 kts 19°
2026-04-23 16:09 36.03530 -77.05795 21101 ft 188 kts 19°
2026-04-23 16:09 36.04322 -77.05360 21101 ft 188 kts 19°
2026-04-23 16:10 36.05521 -77.04702 21102 ft 189 kts 19°
2026-04-23 16:10 36.06721 -77.04044 21096 ft 188 kts 19°
2026-04-23 16:10 36.08308 -77.03173 21095 ft 189 kts 20°
2026-04-23 16:10 36.09124 -77.02723 21093 ft 189 kts 19°
2026-04-23 16:11 36.10713 -77.01853 21097 ft 188 kts 19°
2026-04-23 16:11 36.11912 -77.01194 21093 ft 188 kts 19°
2026-04-23 16:11 36.12706 -77.00757 21097 ft 188 kts 19°
2026-04-23 16:11 36.13905 -77.00097 21091 ft 188 kts 19°
2026-04-23 16:12 36.15106 -76.99437 21088 ft 190 kts 19°
2026-04-23 16:12 36.16313 -76.98773 21089 ft 189 kts 19°
2026-04-23 16:12 36.17518 -76.98110 21098 ft 189 kts 19°
2026-04-23 16:12 36.18728 -76.97443 21091 ft 190 kts 19°
2026-04-23 16:13 36.19940 -76.96779 21090 ft 191 kts 19°
2026-04-23 16:13 36.22357 -76.95444 21094 ft 190 kts 19°
2026-04-23 16:13 36.23558 -76.94783 21094 ft 191 kts 19°
2026-04-23 16:14 36.24791 -76.94103 21091 ft 191 kts 19°
2026-04-23 16:14 36.25989 -76.93442 21094 ft 191 kts 19°
2026-04-23 16:14 36.27201 -76.92773 21096 ft 191 kts 19°
2026-04-23 16:14 36.28415 -76.92102 21096 ft 191 kts 19°
2026-04-23 16:15 36.29631 -76.91431 21095 ft 191 kts 19°
2026-04-23 16:15 36.30850 -76.90758 21092 ft 192 kts 19°
2026-04-23 16:15 36.32066 -76.90088 21090 ft 191 kts 19°
2026-04-23 16:15 36.33283 -76.89413 21091 ft 191 kts 19°
2026-04-23 16:16 36.34499 -76.88742 21089 ft 191 kts 19°
2026-04-23 16:16 36.35712 -76.88072 21089 ft 191 kts 19°
2026-04-23 16:16 36.36918 -76.87381 21089 ft 192 kts 24°
2026-04-23 16:16 36.37941 -76.86284 21085 ft 197 kts 41°
2026-04-23 16:17 36.38890 -76.85055 21088 ft 197 kts 40°
2026-04-23 16:17 36.39846 -76.83840 21086 ft 197 kts 40°
2026-04-23 16:17 36.40804 -76.82620 21080 ft 198 kts 40°
2026-04-23 16:17 36.41762 -76.81393 21086 ft 198 kts 40°
2026-04-23 16:18 36.42714 -76.80175 21085 ft 198 kts 40°
2026-04-23 16:18 36.43678 -76.78944 21089 ft 199 kts 40°
2026-04-23 16:18 36.44643 -76.77707 21086 ft 199 kts 40°
2026-04-23 16:18 36.45607 -76.76472 21092 ft 199 kts 40°
2026-04-23 16:19 36.46572 -76.75242 21092 ft 199 kts 40°
2026-04-23 16:19 36.47523 -76.74020 21090 ft 199 kts 40°
2026-04-23 16:19 36.48491 -76.72777 21090 ft 200 kts 40°
2026-04-23 16:19 36.49459 -76.71537 21083 ft 199 kts 40°
2026-04-23 16:20 36.50428 -76.70297 21089 ft 200 kts 40°
2026-04-23 16:20 36.51395 -76.69054 21088 ft 199 kts 40°
2026-04-23 16:20 36.52362 -76.67812 21090 ft 199 kts 40°
2026-04-23 16:20 36.53322 -76.66579 21092 ft 198 kts 40°
2026-04-23 16:21 36.54280 -76.65344 21091 ft 198 kts 40°
2026-04-23 16:21 36.55238 -76.64109 21093 ft 198 kts 40°
2026-04-23 16:21 36.56185 -76.62886 21095 ft 199 kts 40°
2026-04-23 16:21 36.57151 -76.61639 21091 ft 200 kts 40°
2026-04-23 16:22 36.58117 -76.60392 21099 ft 200 kts 40°
2026-04-23 16:22 36.59082 -76.59145 21095 ft 199 kts 40°
2026-04-23 16:22 36.60045 -76.57902 21096 ft 200 kts 40°
2026-04-23 16:22 36.61009 -76.56655 21085 ft 200 kts 40°
2026-04-23 16:23 36.61973 -76.55408 21084 ft 199 kts 40°
2026-04-23 16:23 36.62926 -76.54176 21085 ft 199 kts 40°
2026-04-23 16:23 36.63886 -76.52934 21086 ft 199 kts 40°
2026-04-23 16:23 36.64847 -76.51690 21085 ft 199 kts 40°
2026-04-23 16:24 36.65808 -76.50445 21085 ft 199 kts 40°
2026-04-23 16:24 36.66766 -76.49204 21085 ft 199 kts 40°
2026-04-23 16:24 36.67726 -76.47960 21086 ft 199 kts 40°
2026-04-23 16:24 36.68686 -76.46715 21098 ft 199 kts 40°
2026-04-23 16:25 36.69634 -76.45485 21097 ft 199 kts 40°
2026-04-23 16:25 36.70593 -76.44241 21097 ft 199 kts 39°
2026-04-23 16:25 36.71553 -76.42995 21096 ft 199 kts 40°
2026-04-23 16:25 36.72496 -76.41726 21097 ft 200 kts 41°
2026-04-23 16:26 36.73419 -76.40428 21095 ft 200 kts 43°
2026-04-23 16:26 36.74300 -76.39075 21098 ft 201 kts 45°
2026-04-23 16:26 36.75171 -76.37702 21098 ft 201 kts 45°
2026-04-23 16:26 36.76043 -76.36335 21100 ft 201 kts 45°
2026-04-23 16:27 36.76922 -76.34965 21096 ft 202 kts 45°
2026-04-23 16:27 36.77802 -76.33592 21095 ft 203 kts 45°
2026-04-23 16:27 36.78682 -76.32215 21094 ft 202 kts 45°
2026-04-23 16:27 36.79551 -76.30857 21096 ft 203 kts 45°
2026-04-23 16:28 36.80434 -76.29478 21078 ft 203 kts 45°
2026-04-23 16:28 36.81316 -76.28103 21079 ft 202 kts 43°
2026-04-23 16:28 36.82295 -76.26867 21074 ft 203 kts 44°
2026-04-23 16:28 36.83122 -76.25428 21078 ft 205 kts 49°
2026-04-23 16:29 36.83925 -76.23958 21077 ft 205 kts 49°
2026-04-23 16:29 36.84726 -76.22489 21080 ft 204 kts 49°
2026-04-23 16:29 36.85517 -76.21040 21078 ft 204 kts 49°
2026-04-23 16:29 36.86317 -76.19573 21076 ft 204 kts 49°
2026-04-23 16:30 36.87117 -76.18106 21079 ft 205 kts 49°
2026-04-23 16:30 36.87920 -76.16630 21080 ft 204 kts 49°
2026-04-23 16:30 36.88728 -76.15161 21075 ft 204 kts 47°
2026-04-23 16:30 36.89589 -76.13762 21077 ft 203 kts 45°
2026-04-23 16:31 36.90459 -76.12371 21081 ft 203 kts 45°
2026-04-23 16:31 36.91324 -76.10991 21072 ft 204 kts 45°
2026-04-23 16:31 36.92201 -76.09589 21070 ft 204 kts 45°
2026-04-23 16:31 36.93094 -76.08164 20827 ft 214 kts 45°
2026-04-23 16:32 36.94035 -76.06678 20514 ft 222 kts 45°
2026-04-23 16:32 36.95007 -76.05156 20210 ft 226 kts 45°
2026-04-23 16:32 36.96012 -76.03640 19896 ft 225 kts 38°
2026-04-23 16:32 36.97332 -76.02771 19583 ft 207 kts
2026-04-23 16:33 36.98680 -76.03000 19271 ft 191 kts 332°
2026-04-23 16:33 36.99820 -76.03775 18971 ft 187 kts 329°
2026-04-23 16:33 37.01023 -76.04419 18625 ft 189 kts 339°
2026-04-23 16:33 37.02323 -76.04749 18269 ft 192 kts 347°
2026-04-23 16:34 37.03648 -76.04948 17870 ft 192 kts 348°
2026-04-23 16:34 37.04970 -76.05132 17480 ft 191 kts 351°
2026-04-23 16:34 37.06283 -76.04731 17082 ft 204 kts 22°
2026-04-23 16:34 37.07434 -76.03654 16700 ft 207 kts 32°
2026-04-23 16:35 37.08549 -76.02525 16323 ft 205 kts 30°
2026-04-23 16:35 37.09602 -76.01314 15941 ft 212 kts 48°
2026-04-23 16:35 37.10046 -75.99523 15559 ft 224 kts 85°
2026-04-23 16:35 37.09630 -75.97675 15193 ft 227 kts 122°
2026-04-23 16:36 37.08487 -75.96391 14821 ft 219 kts 160°
2026-04-23 16:36 37.07053 -75.96128 14455 ft 202 kts 198°
2026-04-23 16:36 37.05899 -75.96888 14100 ft 180 kts 236°
2026-04-23 16:36 37.05443 -75.98241 13740 ft 166 kts 266°
2026-04-23 16:37 37.05385 -75.99661 13352 ft 161 kts 280°
2026-04-23 16:37 37.05609 -76.01027 12966 ft 160 kts 282°
2026-04-23 16:37 37.05668 -76.02412 12579 ft 160 kts 270°
2026-04-23 16:37 37.05533 -76.03794 12199 ft 161 kts 263°
2026-04-23 16:38 37.04950 -76.05009 11818 ft 172 kts 230°
2026-04-23 16:38 37.03980 -76.05898 11451 ft 174 kts 221°
2026-04-23 16:38 37.02944 -76.06698 11080 ft 174 kts 220°
2026-04-23 16:38 37.01985 -76.07556 10721 ft 168 kts 231°
2026-04-23 16:39 37.01127 -76.08559 10359 ft 168 kts 230°
2026-04-23 16:39 37.00144 -76.09387 9998 ft 180 kts 206°
2026-04-23 16:39 36.98852 -76.09295 9603 ft 198 kts 165°
2026-04-23 16:39 36.97731 -76.08234 9210 ft 205 kts 139°
2026-04-23 16:40 36.96896 -76.06817 8823 ft 209 kts 112°
2026-04-23 16:40 36.96803 -76.05038 8432 ft 205 kts 72°
2026-04-23 16:40 36.97511 -76.03570 8054 ft 194 kts 40°
2026-04-23 16:40 36.98479 -76.02395 7684 ft 192 kts 37°
2026-04-23 16:41 36.99437 -76.01268 7324 ft 191 kts 37°
2026-04-23 16:41 37.00411 -76.00139 6966 ft 191 kts 37°
2026-04-23 16:41 37.01391 -75.99015 6607 ft 191 kts 37°
2026-04-23 16:41 37.02369 -75.97903 6236 ft 189 kts 37°
2026-04-23 16:42 37.03343 -75.96804 5860 ft 187 kts 37°
2026-04-23 16:42 37.04308 -75.95718 5482 ft 185 kts 37°
2026-04-23 16:42 37.05267 -75.94644 5110 ft 184 kts 37°
2026-04-23 16:42 37.06237 -75.93608 4736 ft 180 kts 28°
2026-04-23 16:43 37.07400 -75.93293 4347 ft 168 kts 345°
2026-04-23 16:43 37.08337 -75.94014 3965 ft 157 kts 302°
2026-04-23 16:43 37.08774 -75.95254 3606 ft 156 kts 290°
2026-04-23 16:43 37.09184 -75.96510 3278 ft 155 kts 291°
2026-04-23 16:44 37.09592 -75.97735 3049 ft 151 kts 292°
2026-04-23 16:44 37.09997 -75.98948 2783 ft 148 kts 290°
2026-04-23 16:44 37.10098 -76.00192 2533 ft 143 kts 267°
2026-04-23 16:44 37.09814 -76.01345 2280 ft 145 kts 234°
2026-04-23 16:45 37.08907 -76.01936 2031 ft 151 kts 202°
2026-04-23 16:45 37.07952 -76.02317 2010 ft 137 kts 205°
2026-04-23 16:45 37.07181 -76.02899 2001 ft 127 kts 220°
2026-04-23 16:45 37.06471 -76.03524 2002 ft 122 kts 223°
2026-04-23 16:46 37.05797 -76.04148 2001 ft 120 kts 222°
2026-04-23 16:46 37.05133 -76.04780 2001 ft 120 kts 224°
2026-04-23 16:46 37.04481 -76.05415 2006 ft 120 kts 223°
2026-04-23 16:46 37.03824 -76.06055 2002 ft 119 kts 224°
2026-04-23 16:47 37.03163 -76.06695 2005 ft 120 kts 223°
2026-04-23 16:47 37.02482 -76.07363 2006 ft 128 kts 224°
2026-04-23 16:47 37.01770 -76.08052 2012 ft 130 kts 223°
2026-04-23 16:47 37.01048 -76.08748 2019 ft 133 kts 223°
2026-04-23 16:48 37.00317 -76.09463 2018 ft 134 kts 223°
2026-04-23 16:48 36.99574 -76.10182 2015 ft 134 kts 223°
2026-04-23 16:48 36.98876 -76.10860 2001 ft 123 kts 223°
2026-04-23 16:48 36.98229 -76.11484 1882 ft 103 kts 223°
2026-04-23 16:49 36.97885 -76.11820 1795 ft 88 kts 223°
2026-04-23 16:49 36.97300 -76.12386 1649 ft 76 kts 224°
2026-04-23 16:49 36.96893 -76.12784 1553 ft 74 kts 223°
2026-04-23 16:49 36.96481 -76.13186 1456 ft 76 kts 225°
2026-04-23 16:50 36.96058 -76.13594 1358 ft 76 kts 223°
2026-04-23 16:50 36.95640 -76.13998 1254 ft 75 kts 223°
2026-04-23 16:50 36.95232 -76.14391 1157 ft 73 kts 222°
2026-04-23 16:50 36.94823 -76.14791 1056 ft 76 kts 222°
2026-04-23 16:51 36.94404 -76.15201 963 ft 77 kts 221°
2026-04-23 16:51 36.93986 -76.15600 867 ft 74 kts 223°
2026-04-23 16:51 36.93575 -76.16000 778 ft 76 kts 221°
2026-04-23 16:51 36.93138 -76.16428 699 ft 84 kts 219°
2026-04-23 16:52 36.92643 -76.16903 585 ft 95 kts 219°
2026-04-23 16:52 36.92110 -76.17422 451 ft 96 kts 218°
2026-04-23 16:52 36.91589 -76.17925 328 ft 94 kts 219°
2026-04-23 16:52 36.91079 -76.18419 178 ft 92 kts 217°
2026-04-23 16:53 36.90579 -76.18894 57 ft 89 kts 219°
2026-04-23 16:53 36.90119 -76.19345 2 ft 74 kts 216°
2026-04-23 16:53 36.89764 -76.19692 -1 ft 56 kts 217°
2026-04-23 16:53 36.89550 -76.19876 2 ft 16 kts 171°
2026-04-23 16:54 36.89436 -76.19860 -1 ft 7 kts 178°
2026-04-23 16:54 36.89411 -76.19860 -1 ft 0 kts 179°
2026-04-23 16:55 36.89410 -76.19860 -1 ft 2 kts 179°
2026-04-23 16:55 36.89359 -76.19861 -2 ft 13 kts 180°
2026-04-23 16:55 36.89236 -76.19862 -2 ft 22 kts 180°
2026-04-23 16:56 36.89069 -76.19864 -2 ft 26 kts 181°
2026-04-23 16:56 36.88929 -76.19867 1 ft 0 kts 185°
2026-04-23 16:56 36.88888 -76.19898 7 ft 11 kts 238°
2026-04-23 16:57 36.88854 -76.19978 3 ft 23 kts 247°
2026-04-23 16:57 36.88790 -76.20088 -2 ft 10 kts 136°
2026-04-23 16:57 36.88740 -76.20057 -3 ft 13 kts 254°
2026-04-23 16:57 36.88693 -76.20139 12 ft 5 kts 217°
2026-04-23 16:58 36.88679 -76.20153 -3 ft 0 kts 218°
2026-04-23 16:58 36.88677 -76.20155 -3 ft 0 kts 218°
2026-04-23 16:58 36.88663 -76.20168 -3 ft 6 kts 203°
2026-04-23 16:58 36.88625 -76.20164 -3 ft 5 kts 88°
2026-04-23 16:59 36.88643 -76.20139 -3 ft 7 kts 35°
2026-04-23 16:59 36.88694 -76.20145 -3 ft 5 kts 240°
2026-04-23 16:59 36.88678 -76.20162 -3 ft 0 kts 218°